User: anonymous   Login
Location: Fort Wayne
(41.1310°N, 85.1290°W)
Time: 09:17:58
(UTC-04:00)
Language:

IDEFIX/ARIANE 42P - Orbit

View from above orbital plane
View from above orbital plane
View from above satellite
View from above satellite

Ground track
Ground track

The orbit data is extracted from the following two-line orbital elements,

1 27422U 02021B   15185.15067349  .00000046  00000-0  34140-4 0  9993
2 27422 098.2560 213.5154 0012179 187.0501 173.0512 14.29195197684681
Epoch (UTC): 04 July 2015 03:36:58
Eccentricity: 0.0012179
inclination: 98.2560°
perigee height: 785 km
apogee height: 803 km
right ascension of ascending node: 213.5154°
argument of perigee: 187.0501°
revolutions per day: 14.29195197
mean anomaly at epoch: 173.0512°
orbit number at epoch: 68468

The dashed part of the orbit path shows where the satellite is in the earth's shadow,  

DLR